Time,TemperatureF,DewpointF,PressureIn,WindDirection,WindDirectionDegrees,WindSpeedMPH,WindSpeedGustMPH,Humidity,HourlyPrecipIn,Conditions,Clouds,dailyrainin,SoftwareType,DateUTC
2013-06-13 00:01:00,58.1,99.9,27.96,ESE,112,0.1,1.0,0,0.00,RA,SKC,0.00,WeatherDisplay:10.37,2013-06-13 04:01:00,
2013-06-13 00:02:00,58.1,99.9,27.96,SSW,202,0.1,1.2,0,0.00,RA,SKC,0.00,WeatherDisplay:10.37,2013-06-13 04:02:00,
2013-06-13 00:07:00,58.1,99.9,27.96,WNW,292,0.0,0.0,0,0.00,RA,SKC,0.00,WeatherDisplay:10.37,2013-06-13 04:07:00,
2013-06-13 00:12:00,58.1,99.9,27.96,ENE,67,1.6,5.8,0,0.00,CLR,SKC,0.00,WeatherDisplay:10.37,2013-06-13 04:12:00,
2013-06-13 00:17:00,58.1,99.9,27.96,NW,315,0.2,1.2,0,0.00,CLR,SKC,0.00,WeatherDisplay:10.37,2013-06-13 04:17:00,
2013-06-13 00:22:00,57.1,99.9,27.95,NNE,22,0.5,3.5,0,0.00,CLR,SKC,0.00,WeatherDisplay:10.37,2013-06-13 04:22:00,
2013-06-13 00:27:00,57.1,99.9,27.95,WNW,292,0.0,0.0,0,0.00,CLR,SKC,0.00,WeatherDisplay:10.37,2013-06-13 04:27:00,
2013-06-13 00:32:00,57.1,99.9,27.95,WNW,292,0.0,0.0,0,0.00,CLR,SKC,0.00,WeatherDisplay:10.37,2013-06-13 04:32:00,
2013-06-13 00:37:00,57.1,99.9,27.95,NNW,337,0.1,1.2,0,0.00,CLR,SKC,0.00,WeatherDisplay:10.37,2013-06-13 04:37:00,
2013-06-13 00:42:00,57.1,99.9,27.95,NW,315,0.0,0.0,0,0.00,CLR,SKC,0.00,WeatherDisplay:10.37,2013-06-13 04:42:00,
2013-06-13 00:47:00,57.1,99.9,27.95,WSW,247,0.0,0.0,0,0.00,CLR,SKC,0.00,WeatherDisplay:10.37,2013-06-13 04:47:00,
2013-06-13 00:52:00,57.1,99.9,27.95,WNW,292,0.0,0.0,0,0.00,CLR,SKC,0.00,WeatherDisplay:10.37,2013-06-13 04:52:00,
2013-06-13 00:57:00,57.1,99.9,27.95,NW,315,0.0,0.0,0,0.00,CLR,SKC,0.00,WeatherDisplay:10.37,2013-06-13 04:57:00,
2013-06-13 01:02:00,57.1,99.9,27.96,NW,315,0.0,0.0,0,0.00,CLR,SKC,0.00,WeatherDisplay:10.37,2013-06-13 05:02:00,
2013-06-13 01:07:00,57.1,99.9,27.96,WNW,292,0.0,0.0,0,0.00,CLR,SKC,0.00,WeatherDisplay:10.37,2013-06-13 05:07:00,
2013-06-13 01:12:00,57.1,99.9,27.96,WNW,292,0.0,0.0,0,0.00,CLR,SKC,0.00,WeatherDisplay:10.37,2013-06-13 05:12:00,
2013-06-13 01:17:00,57.1,99.9,27.96,WNW,292,0.0,1.2,0,0.00,CLR,SKC,0.00,WeatherDisplay:10.37,2013-06-13 05:17:00,
2013-06-13 01:22:00,57.1,99.9,27.96,South,180,0.0,0.0,0,0.00,CLR,SKC,0.00,WeatherDisplay:10.37,2013-06-13 05:22:00,
2013-06-13 01:27:00,57.1,99.9,27.96,NNW,337,0.6,3.5,0,0.00,CLR,SKC,0.00,WeatherDisplay:10.37,2013-06-13 05:27:00,
2013-06-13 01:32:00,57.1,99.9,27.96,North,360,0.2,2.3,0,0.00,CLR,SKC,0.00,WeatherDisplay:10.37,2013-06-13 05:32:00,
2013-06-13 01:37:00,57.1,99.9,27.96,WSW,247,0.0,0.0,0,0.00,CLR,SKC,0.00,WeatherDisplay:10.37,2013-06-13 05:37:00,
2013-06-13 01:42:00,57.1,99.9,27.95,NW,315,0.1,2.3,0,0.00,CLR,SKC,0.00,WeatherDisplay:10.37,2013-06-13 05:42:00,
2013-06-13 01:47:00,57.1,99.9,27.95,NNW,337,0.0,1.2,0,0.00,CLR,SKC,0.00,WeatherDisplay:10.37,2013-06-13 05:47:00,
2013-06-13 01:52:00,57.1,99.9,27.95,WSW,247,0.1,1.2,0,0.00,CLR,SKC,0.00,WeatherDisplay:10.37,2013-06-13 05:52:00,
2013-06-13 01:57:00,56.1,99.9,27.95,NW,315,0.6,3.5,0,0.00,CLR,SKC,0.00,WeatherDisplay:10.37,2013-06-13 05:57:00,
2013-06-13 02:02:00,56.1,99.9,27.95,WNW,292,0.3,3.5,0,0.00,CLR,SKC,0.00,WeatherDisplay:10.37,2013-06-13 06:02:00,
2013-06-13 02:07:00,56.1,99.9,27.95,SSW,202,0.0,0.0,0,0.00,CLR,SKC,0.00,WeatherDisplay:10.37,2013-06-13 06:07:00,
2013-06-13 02:12:00,56.1,99.9,27.95,WNW,292,0.0,0.0,0,0.00,CLR,SKC,0.00,WeatherDisplay:10.37,2013-06-13 06:12:00,
2013-06-13 02:17:00,56.1,99.9,27.95,WNW,292,0.0,0.0,0,0.00,CLR,SKC,0.00,WeatherDisplay:10.37,2013-06-13 06:17:00,
2013-06-13 02:22:00,56.1,99.9,27.95,WNW,292,0.0,0.0,0,0.00,CLR,SKC,0.00,WeatherDisplay:10.37,2013-06-13 06:22:00,
2013-06-13 02:27:00,56.1,99.9,27.95,WNW,292,0.0,0.0,0,0.00,CLR,SKC,0.00,WeatherDisplay:10.37,2013-06-13 06:27:00,
2013-06-13 02:32:00,56.1,99.9,27.95,WNW,292,0.0,0.0,0,0.00,CLR,SKC,0.00,WeatherDisplay:10.37,2013-06-13 06:32:00,
2013-06-13 02:37:00,56.1,99.9,27.95,WNW,292,0.0,0.0,0,0.00,CLR,SKC,0.00,WeatherDisplay:10.37,2013-06-13 06:37:00,
2013-06-13 02:42:00,56.1,99.9,27.94,NW,315,0.0,0.0,0,0.00,CLR,SKC,0.00,WeatherDisplay:10.37,2013-06-13 06:42:00,
2013-06-13 02:47:00,56.1,99.9,27.94,NW,315,0.0,0.0,0,0.00,CLR,SKC,0.00,WeatherDisplay:10.37,2013-06-13 06:47:00,
2013-06-13 02:52:00,56.1,99.9,27.94,NE,45,0.0,0.0,0,0.00,CLR,SKC,0.00,WeatherDisplay:10.37,2013-06-13 06:52:00,
2013-06-13 02:57:00,56.1,99.9,27.94,NW,315,0.2,1.2,0,0.00,CLR,SKC,0.00,WeatherDisplay:10.37,2013-06-13 06:57:00,
2013-06-13 03:02:00,56.1,99.9,27.94,NW,315,0.0,0.0,0,0.00,CLR,SKC,0.00,WeatherDisplay:10.37,2013-06-13 07:02:00,
2013-06-13 03:07:00,56.1,99.9,27.94,NNW,337,0.0,0.0,0,0.00,CLR,SKC,0.00,WeatherDisplay:10.37,2013-06-13 07:07:00,
2013-06-13 03:12:00,56.1,99.9,27.95,SW,225,0.1,1.2,0,0.00,CLR,SKC,0.00,WeatherDisplay:10.37,2013-06-13 07:12:00,
2013-06-13 03:17:00,56.1,99.9,27.95,WNW,292,0.3,3.5,0,0.00,CLR,SKC,0.00,WeatherDisplay:10.37,2013-06-13 07:17:00,
2013-06-13 03:22:00,57.1,99.9,27.95,WNW,292,0.7,3.5,0,0.00,CLR,SKC,0.00,WeatherDisplay:10.37,2013-06-13 07:22:00,
2013-06-13 03:27:00,57.1,99.9,27.95,WNW,292,0.0,0.0,0,0.00,CLR,SKC,0.00,WeatherDisplay:10.37,2013-06-13 07:27:00,
2013-06-13 03:32:00,57.1,99.9,27.95,North,360,0.6,3.5,0,0.00,CLR,SKC,0.00,WeatherDisplay:10.37,2013-06-13 07:32:00,
2013-06-13 03:37:00,57.1,99.9,27.95,SW,225,0.0,0.0,0,0.00,CLR,SKC,0.00,WeatherDisplay:10.37,2013-06-13 07:37:00,
2013-06-13 03:42:00,57.1,99.9,27.96,WNW,292,0.7,3.5,0,0.00,CLR,SKC,0.00,WeatherDisplay:10.37,2013-06-13 07:42:00,
2013-06-13 03:47:00,57.1,99.9,27.96,WSW,247,0.0,0.0,0,0.00,CLR,SKC,0.00,WeatherDisplay:10.37,2013-06-13 07:47:00,
2013-06-13 03:52:00,57.1,99.9,27.96,WNW,292,0.2,3.5,0,0.00,CLR,SKC,0.00,WeatherDisplay:10.37,2013-06-13 07:52:00,
2013-06-13 03:57:00,57.1,99.9,27.96,WNW,292,0.0,0.0,0,0.00,CLR,SKC,0.00,WeatherDisplay:10.37,2013-06-13 07:57:00,
2013-06-13 04:02:00,57.1,99.9,27.96,NW,315,0.3,2.3,0,0.00,CLR,SKC,0.00,WeatherDisplay:10.37,2013-06-13 08:02:00,
2013-06-13 04:07:00,57.1,99.9,27.96,SSW,202,0.0,0.0,0,0.00,CLR,SKC,0.00,WeatherDisplay:10.37,2013-06-13 08:07:00,
2013-06-13 04:12:00,57.1,99.9,27.95,NW,315,0.2,3.5,0,0.00,CLR,SKC,0.00,WeatherDisplay:10.37,2013-06-13 08:12:00,
2013-06-13 04:17:00,57.1,99.9,27.95,North,360,0.3,2.3,0,0.00,CLR,SKC,0.00,WeatherDisplay:10.37,2013-06-13 08:17:00,
2013-06-13 04:22:00,57.1,99.9,27.96,West,270,0.0,0.0,0,0.00,CLR,SKC,0.00,WeatherDisplay:10.37,2013-06-13 08:22:00,
2013-06-13 04:27:00,57.1,99.9,27.96,NNW,337,0.0,0.0,0,0.00,CLR,SKC,0.00,WeatherDisplay:10.37,2013-06-13 08:27:00,
2013-06-13 04:32:00,57.1,99.9,27.96,NNW,337,0.0,0.0,0,0.00,CLR,SKC,0.00,WeatherDisplay:10.37,2013-06-13 08:32:00,
2013-06-13 04:37:00,56.1,99.9,27.96,NNW,337,0.0,0.0,0,0.00,CLR,SKC,0.00,WeatherDisplay:10.37,2013-06-13 08:37:00,
2013-06-13 04:42:00,56.1,99.9,27.96,NNW,337,0.0,0.0,0,0.00,CLR,SKC,0.00,WeatherDisplay:10.37,2013-06-13 08:42:00,
2013-06-13 04:47:00,56.1,99.9,27.96,NNW,337,0.0,0.0,0,0.00,CLR,SKC,0.00,WeatherDisplay:10.37,2013-06-13 08:47:00,
2013-06-13 04:52:00,56.1,99.9,27.96,NNE,22,0.0,1.2,0,0.00,CLR,SKC,0.00,WeatherDisplay:10.37,2013-06-13 08:52:00,
2013-06-13 04:57:00,56.1,99.9,27.96,NNE,22,0.0,0.0,0,0.00,CLR,SKC,0.00,WeatherDisplay:10.37,2013-06-13 08:57:00,
2013-06-13 05:02:00,56.1,99.9,27.97,NNW,337,0.0,0.0,0,0.00,CLR,SKC,0.00,WeatherDisplay:10.37,2013-06-13 09:02:00,
2013-06-13 05:07:00,56.1,99.9,27.97,NNW,337,0.0,0.0,0,0.00,CLR,SKC,0.00,WeatherDisplay:10.37,2013-06-13 09:07:00,
2013-06-13 05:12:00,56.1,99.9,27.98,NNW,337,0.0,0.0,0,0.00,CLR,SKC,0.00,WeatherDisplay:10.37,2013-06-13 09:12:00,
2013-06-13 05:17:00,56.1,99.9,27.98,North,360,0.0,0.0,0,0.00,CLR,SKC,0.00,WeatherDisplay:10.37,2013-06-13 09:17:00,
2013-06-13 05:22:00,56.1,99.9,27.98,WNW,292,0.0,0.0,0,0.00,CLR,SKC,0.00,WeatherDisplay:10.37,2013-06-13 09:22:00,
2013-06-13 05:27:00,56.1,99.9,27.98,NNE,22,0.0,0.0,0,0.00,CLR,SKC,0.00,WeatherDisplay:10.37,2013-06-13 09:27:00,
2013-06-13 05:32:00,56.1,99.9,27.98,North,360,0.1,1.2,0,0.00,CLR,SKC,0.00,WeatherDisplay:10.37,2013-06-13 09:32:00,
2013-06-13 05:37:00,56.1,99.9,27.98,North,360,0.0,0.0,0,0.00,CLR,SKC,0.00,WeatherDisplay:10.37,2013-06-13 09:37:00,
2013-06-13 05:42:00,56.1,99.9,27.98,WNW,292,0.0,0.0,0,0.00,CLR,SKC,0.00,WeatherDisplay:10.37,2013-06-13 09:42:00,
2013-06-13 05:47:00,56.1,99.9,27.98,WNW,292,0.0,0.0,0,0.00,CLR,SKC,0.00,WeatherDisplay:10.37,2013-06-13 09:47:00,
2013-06-13 05:52:00,56.1,99.9,27.98,WNW,292,0.0,0.0,0,0.00,CLR,SKC,0.00,WeatherDisplay:10.37,2013-06-13 09:52:00,
2013-06-13 05:57:00,56.1,99.9,27.98,WNW,292,0.0,0.0,0,0.00,CLR,SKC,0.00,WeatherDisplay:10.37,2013-06-13 09:57:00,
2013-06-13 06:02:00,56.1,99.9,27.99,WNW,292,0.0,0.0,0,0.00,CLR,SKC,0.00,WeatherDisplay:10.37,2013-06-13 10:02:00,
2013-06-13 06:07:00,56.1,99.9,27.99,WNW,292,0.0,0.0,0,0.00,CLR,SKC,0.00,WeatherDisplay:10.37,2013-06-13 10:07:00,
2013-06-13 06:12:00,56.1,99.9,27.99,WNW,292,0.0,0.0,0,0.00,CLR,SKC,0.00,WeatherDisplay:10.37,2013-06-13 10:12:00,
2013-06-13 06:17:00,56.1,99.9,27.99,WNW,292,0.0,0.0,0,0.00,CLR,SKC,0.00,WeatherDisplay:10.37,2013-06-13 10:17:00,
2013-06-13 06:22:00,57.1,99.9,28.00,WNW,292,0.0,0.0,0,0.00,CLR,SKC,0.00,WeatherDisplay:10.37,2013-06-13 10:22:00,
2013-06-13 06:27:00,57.1,99.9,28.00,WNW,292,0.0,0.0,0,0.00,CLR,SKC,0.00,WeatherDisplay:10.37,2013-06-13 10:27:00,
2013-06-13 06:32:00,57.1,99.9,27.99,WNW,292,0.0,0.0,0,0.00,CLR,SKC,0.00,WeatherDisplay:10.37,2013-06-13 10:32:00,
2013-06-13 06:37:00,57.1,99.9,27.99,NW,315,0.1,1.2,0,0.00,CLR,SKC,0.00,WeatherDisplay:10.37,2013-06-13 10:37:00,
2013-06-13 06:42:00,58.1,99.9,27.99,NW,315,0.0,0.0,0,0.00,CLR,SKC,0.00,WeatherDisplay:10.37,2013-06-13 10:42:00,
2013-06-13 06:47:00,58.1,99.9,27.99,NNW,337,0.4,2.3,0,0.00,CLR,SKC,0.00,WeatherDisplay:10.37,2013-06-13 10:47:00,
2013-06-13 06:52:00,58.1,99.9,27.99,NNW,337,0.0,0.0,0,0.00,CLR,SKC,0.00,WeatherDisplay:10.37,2013-06-13 10:52:00,
2013-06-13 06:57:00,58.1,99.9,27.99,NNW,337,0.0,0.0,0,0.00,CLR,SKC,0.00,WeatherDisplay:10.37,2013-06-13 10:57:00,
2013-06-13 07:02:00,59.1,99.9,27.99,North,360,0.5,3.5,0,0.00,CLR,SKC,0.00,WeatherDisplay:10.37,2013-06-13 11:02:00,
2013-06-13 07:07:00,59.1,99.9,27.99,NNW,337,0.0,0.0,0,0.00,CLR,SKC,0.00,WeatherDisplay:10.37,2013-06-13 11:07:00,
2013-06-13 07:12:00,59.1,99.9,27.99,NNW,337,0.0,0.0,0,0.00,CLR,SKC,0.00,WeatherDisplay:10.37,2013-06-13 11:12:00,
2013-06-13 07:17:00,59.1,99.9,27.99,NNW,337,0.0,0.0,0,0.00,CLR,SKC,0.00,WeatherDisplay:10.37,2013-06-13 11:17:00,
2013-06-13 07:22:00,59.1,99.9,28.00,NNW,337,0.0,0.0,0,0.00,CLR,SKC,0.00,WeatherDisplay:10.37,2013-06-13 11:22:00,
2013-06-13 07:27:00,59.1,99.9,28.00,NW,315,0.0,0.0,0,0.00,CLR,SKC,0.00,WeatherDisplay:10.37,2013-06-13 11:27:00,
2013-06-13 07:32:00,59.1,99.9,28.00,WSW,247,0.0,0.0,0,0.00,CLR,SKC,0.00,WeatherDisplay:10.37,2013-06-13 11:32:00,
2013-06-13 07:37:00,60.1,99.9,28.00,South,180,0.0,0.0,0,0.00,CLR,SKC,0.00,WeatherDisplay:10.37,2013-06-13 11:37:00,
2013-06-13 07:42:00,60.1,99.9,28.00,NNW,337,0.0,0.0,0,0.00,CLR,SKC,0.00,WeatherDisplay:10.37,2013-06-13 11:42:00,
2013-06-13 07:47:00,60.1,99.9,28.00,WSW,247,0.3,1.0,0,0.00,CLR,SKC,0.00,WeatherDisplay:10.37,2013-06-13 11:47:00,
2013-06-13 07:52:00,60.1,99.9,28.00,WSW,247,0.0,0.0,0,0.00,CLR,SKC,0.00,WeatherDisplay:10.37,2013-06-13 11:52:00,
2013-06-13 07:57:00,60.1,99.9,28.00,North,360,0.0,2.3,0,0.00,CLR,SKC,0.00,WeatherDisplay:10.37,2013-06-13 11:57:00,
2013-06-13 08:02:00,60.1,99.9,27.99,West,270,0.0,0.0,0,0.00,CLR,SKC,0.00,WeatherDisplay:10.37,2013-06-13 12:02:00,
2013-06-13 08:07:00,60.1,99.9,27.99,WSW,247,0.0,0.0,0,0.00,CLR,SKC,0.00,WeatherDisplay:10.37,2013-06-13 12:07:00,
2013-06-13 08:12:00,61.1,99.9,28.00,South,180,0.7,3.5,0,0.00,CLR,SKC,0.00,WeatherDisplay:10.37,2013-06-13 12:12:00,
2013-06-13 08:17:00,60.1,99.9,28.00,SSW,202,0.1,1.2,0,0.00,CLR,SKC,0.00,WeatherDisplay:10.37,2013-06-13 12:17:00,
2013-06-13 08:22:00,60.1,99.9,28.00,SW,225,0.0,0.0,0,0.00,CLR,SKC,0.00,WeatherDisplay:10.37,2013-06-13 12:22:00,
2013-06-13 08:27:00,61.1,99.9,28.00,North,360,0.0,0.0,0,0.00,CLR,SKC,0.00,WeatherDisplay:10.37,2013-06-13 12:27:00,
2013-06-13 08:32:00,61.1,99.9,28.00,West,270,0.0,0.0,0,0.00,CLR,SKC,0.00,WeatherDisplay:10.37,2013-06-13 12:32:00,
2013-06-13 08:37:00,61.1,99.9,28.00,WSW,247,2.9,4.6,0,0.00,CLR,SKC,0.00,WeatherDisplay:10.37,2013-06-13 12:37:00,
2013-06-13 08:42:00,61.1,99.9,28.00,WSW,247,1.8,3.5,0,0.00,CLR,SKC,0.00,WeatherDisplay:10.37,2013-06-13 12:42:00,
2013-06-13 08:47:00,61.1,99.9,28.00,SSW,202,1.0,3.5,0,0.00,CLR,SKC,0.00,WeatherDisplay:10.37,2013-06-13 12:47:00,
2013-06-13 08:52:00,61.1,99.9,27.99,WNW,292,0.0,0.0,0,0.00,CLR,SKC,0.00,WeatherDisplay:10.37,2013-06-13 12:52:00,
2013-06-13 08:57:00,61.1,99.9,27.99,SE,135,0.0,0.0,0,0.00,CLR,SKC,0.00,WeatherDisplay:10.37,2013-06-13 12:57:00,
2013-06-13 09:02:00,61.1,99.9,28.00,ESE,112,0.4,3.5,0,0.00,CLR,SKC,0.00,WeatherDisplay:10.37,2013-06-13 13:02:00,
2013-06-13 09:07:00,61.1,99.9,28.00,East,90,0.0,0.0,0,0.00,CLR,SKC,0.00,WeatherDisplay:10.37,2013-06-13 13:07:00,
2013-06-13 09:12:00,61.1,99.9,27.99,ENE,67,0.0,0.0,0,0.00,CLR,SKC,0.00,WeatherDisplay:10.37,2013-06-13 13:12:00,
2013-06-13 09:17:00,61.1,99.9,27.99,East,90,0.0,0.0,0,0.00,CLR,SKC,0.00,WeatherDisplay:10.37,2013-06-13 13:17:00,
2013-06-13 09:22:00,60.1,99.9,27.99,NE,45,0.0,0.0,0,0.00,CLR,SKC,0.00,WeatherDisplay:10.37,2013-06-13 13:22:00,
2013-06-13 09:27:00,60.1,99.9,27.99,East,90,0.0,0.0,0,0.00,CLR,SKC,0.00,WeatherDisplay:10.37,2013-06-13 13:27:00,
2013-06-13 09:32:00,60.1,99.9,27.99,ESE,112,0.0,0.0,0,0.00,CLR,SKC,0.00,WeatherDisplay:10.37,2013-06-13 13:32:00,
2013-06-13 09:37:00,60.1,99.9,27.99,SE,135,0.0,0.0,0,0.00,CLR,SKC,0.00,WeatherDisplay:10.37,2013-06-13 13:37:00,
2013-06-13 09:42:00,60.1,99.9,28.00,SE,135,0.0,0.0,0,0.00,CLR,SKC,0.00,WeatherDisplay:10.37,2013-06-13 13:42:00,
2013-06-13 09:47:00,60.1,99.9,28.00,East,90,0.0,0.0,0,0.00,CLR,SKC,0.00,WeatherDisplay:10.37,2013-06-13 13:47:00,
2013-06-13 09:52:00,60.1,99.9,27.99,ESE,112,0.0,0.0,0,0.00,CLR,SKC,0.00,WeatherDisplay:10.37,2013-06-13 13:52:00,
2013-06-13 09:57:00,59.1,99.9,27.99,ESE,112,0.0,0.0,0,0.00,CLR,SKC,0.00,WeatherDisplay:10.37,2013-06-13 13:57:00,
2013-06-13 10:02:00,59.1,99.9,27.99,ENE,67,0.0,0.0,0,0.00,CLR,SKC,0.00,WeatherDisplay:10.37,2013-06-13 14:02:00,
2013-06-13 10:07:00,59.1,99.9,27.99,ESE,112,0.0,0.0,0,0.00,CLR,SKC,0.00,WeatherDisplay:10.37,2013-06-13 14:07:00,
2013-06-13 10:12:00,59.1,99.9,27.99,ESE,112,0.0,0.0,0,0.00,CLR,SKC,0.00,WeatherDisplay:10.37,2013-06-13 14:12:00,
2013-06-13 10:17:00,60.1,99.9,27.99,East,90,0.0,0.0,0,0.00,CLR,SKC,0.00,WeatherDisplay:10.37,2013-06-13 14:17:00,
2013-06-13 10:22:00,60.1,99.9,27.99,SE,135,0.0,0.0,0,0.00,CLR,SKC,0.00,WeatherDisplay:10.37,2013-06-13 14:22:00,
2013-06-13 10:27:00,60.1,99.9,27.99,NE,45,0.0,1.2,0,0.00,CLR,SKC,0.00,WeatherDisplay:10.37,2013-06-13 14:27:00,
2013-06-13 10:32:00,60.1,99.9,27.99,ESE,112,0.4,2.3,0,0.00,CLR,SKC,0.00,WeatherDisplay:10.37,2013-06-13 14:32:00,
2013-06-13 10:37:00,60.1,99.9,27.99,ENE,67,0.0,0.0,0,0.00,CLR,SKC,0.00,WeatherDisplay:10.37,2013-06-13 14:37:00,
2013-06-13 10:42:00,60.1,99.9,27.99,ESE,112,0.5,3.5,0,0.00,CLR,SKC,0.00,WeatherDisplay:10.37,2013-06-13 14:42:00,
2013-06-13 10:47:00,60.1,99.9,27.99,ESE,112,1.4,3.5,0,0.00,CLR,SKC,0.00,WeatherDisplay:10.37,2013-06-13 14:47:00,
2013-06-13 10:52:00,60.1,99.9,27.99,ESE,112,2.3,3.5,0,0.00,CLR,SKC,0.00,WeatherDisplay:10.37,2013-06-13 14:52:00,
2013-06-13 10:57:00,59.1,99.9,27.99,ESE,112,0.3,2.3,0,0.00,CLR,SKC,0.00,WeatherDisplay:10.37,2013-06-13 14:57:00,
2013-06-13 11:02:00,60.1,99.9,27.99,ESE,112,0.0,0.0,0,0.00,CLR,SKC,0.00,WeatherDisplay:10.37,2013-06-13 15:02:00,
2013-06-13 11:07:00,60.1,99.9,27.99,East,90,0.0,0.0,0,0.00,CLR,SKC,0.00,WeatherDisplay:10.37,2013-06-13 15:07:00,
2013-06-13 11:12:00,60.1,99.9,27.99,ENE,67,0.0,0.0,0,0.00,CLR,SKC,0.00,WeatherDisplay:10.37,2013-06-13 15:12:00,
2013-06-13 11:17:00,60.1,99.9,27.99,ESE,112,3.1,5.0,0,0.00,CLR,SKC,0.00,WeatherDisplay:10.37,2013-06-13 15:17:00,
2013-06-13 11:22:00,60.1,99.9,27.99,ESE,112,4.1,4.6,0,0.00,CLR,SKC,0.00,WeatherDisplay:10.37,2013-06-13 15:22:00,
2013-06-13 11:27:00,60.1,99.9,27.99,East,90,0.7,2.3,0,0.00,CLR,SKC,0.00,WeatherDisplay:10.37,2013-06-13 15:27:00,
2013-06-13 11:32:00,60.1,99.9,27.99,ESE,112,0.9,3.0,0,0.00,CLR,SKC,0.00,WeatherDisplay:10.37,2013-06-13 15:32:00,
2013-06-13 11:37:00,60.1,99.9,27.99,ESE,112,2.2,3.5,0,0.00,CLR,SKC,0.00,WeatherDisplay:10.37,2013-06-13 15:37:00,
2013-06-13 11:42:00,59.1,99.9,27.99,ESE,112,2.2,5.0,0,0.00,CLR,SKC,0.00,WeatherDisplay:10.37,2013-06-13 15:42:00,
2013-06-13 11:47:00,59.1,99.9,27.99,ESE,112,2.2,3.5,0,0.00,CLR,SKC,0.00,WeatherDisplay:10.37,2013-06-13 15:47:00,
2013-06-13 11:52:00,59.1,99.9,27.99,ESE,112,2.5,4.0,0,0.00,CLR,SKC,0.00,WeatherDisplay:10.37,2013-06-13 15:52:00,
2013-06-13 11:57:00,59.1,99.9,27.99,ESE,112,2.3,3.5,0,0.00,CLR,SKC,0.00,WeatherDisplay:10.37,2013-06-13 15:57:00,
2013-06-13 12:02:00,59.1,99.9,28.00,ESE,112,2.5,3.5,0,0.00,CLR,SKC,0.00,WeatherDisplay:10.37,2013-06-13 16:02:00,
2013-06-13 12:07:00,59.1,99.9,28.00,ESE,112,0.9,3.5,0,0.00,CLR,SKC,0.00,WeatherDisplay:10.37,2013-06-13 16:07:00,
2013-06-13 12:12:00,59.1,99.9,28.00,ESE,112,2.0,4.0,0,0.00,CLR,SKC,0.00,WeatherDisplay:10.37,2013-06-13 16:12:00,
2013-06-13 12:17:00,59.1,99.9,28.00,SSE,157,1.8,3.5,0,0.00,CLR,SKC,0.00,WeatherDisplay:10.37,2013-06-13 16:17:00,
2013-06-13 12:22:00,59.1,99.9,28.00,ESE,112,1.6,3.5,0,0.00,CLR,SKC,0.00,WeatherDisplay:10.37,2013-06-13 16:22:00,
2013-06-13 12:27:00,59.1,99.9,28.00,SSE,157,3.4,4.6,0,0.00,CLR,SKC,0.00,WeatherDisplay:10.37,2013-06-13 16:27:00,
2013-06-13 12:32:00,59.1,99.9,27.99,SSE,157,3.2,3.5,0,0.00,CLR,SKC,0.00,WeatherDisplay:10.37,2013-06-13 16:32:00,
2013-06-13 12:37:00,59.1,99.9,27.99,SE,135,2.6,4.6,0,0.00,CLR,SKC,0.00,WeatherDisplay:10.37,2013-06-13 16:37:00,
2013-06-13 12:42:00,59.1,99.9,27.98,ESE,112,1.9,3.5,0,0.00,CLR,SKC,0.00,WeatherDisplay:10.37,2013-06-13 16:42:00,
2013-06-13 12:47:00,59.1,99.9,27.98,ESE,112,2.3,3.5,0,0.00,CLR,SKC,0.00,WeatherDisplay:10.37,2013-06-13 16:47:00,
2013-06-13 12:52:00,59.1,99.9,27.98,ESE,112,3.2,4.6,0,0.00,CLR,SKC,0.00,WeatherDisplay:10.37,2013-06-13 16:52:00,
2013-06-13 12:57:00,59.1,99.9,27.98,ESE,112,1.2,3.5,0,0.00,CLR,SKC,0.00,WeatherDisplay:10.37,2013-06-13 16:57:00,
2013-06-13 13:02:00,59.1,99.9,27.98,ESE,112,2.0,3.5,0,0.00,CLR,SKC,0.00,WeatherDisplay:10.37,2013-06-13 17:02:00,
2013-06-13 13:07:00,58.1,99.9,27.98,SE,135,2.9,3.5,0,0.00,CLR,SKC,0.00,WeatherDisplay:10.37,2013-06-13 17:07:00,
2013-06-13 13:12:00,59.1,99.9,27.97,ESE,112,0.4,2.3,0,0.00,CLR,SKC,0.00,WeatherDisplay:10.37,2013-06-13 17:12:00,
2013-06-13 13:17:00,59.1,99.9,27.97,ESE,112,1.0,3.5,0,0.00,CLR,SKC,0.00,WeatherDisplay:10.37,2013-06-13 17:17:00,
2013-06-13 13:22:00,59.1,99.9,27.96,ESE,112,1.5,3.5,0,0.00,CLR,SKC,0.00,WeatherDisplay:10.37,2013-06-13 17:22:00,
2013-06-13 13:27:00,59.1,99.9,27.96,SE,135,2.7,3.5,0,0.00,CLR,SKC,0.00,WeatherDisplay:10.37,2013-06-13 17:27:00,
2013-06-13 13:32:00,58.1,99.9,27.97,ESE,112,1.1,3.0,0,0.00,CLR,SKC,0.00,WeatherDisplay:10.37,2013-06-13 17:32:00,
2013-06-13 13:37:00,58.1,99.9,27.97,ESE,112,2.7,3.5,0,0.00,CLR,SKC,0.00,WeatherDisplay:10.37,2013-06-13 17:37:00,
2013-06-13 13:42:00,58.1,99.9,27.96,SSE,157,0.5,3.5,0,0.00,CLR,SKC,0.00,WeatherDisplay:10.37,2013-06-13 17:42:00,
2013-06-13 13:47:00,58.1,99.9,27.96,SSE,157,1.6,3.5,0,0.00,CLR,SKC,0.00,WeatherDisplay:10.37,2013-06-13 17:47:00,
2013-06-13 13:52:00,58.1,99.9,27.97,SSE,157,0.9,2.3,0,0.00,CLR,SKC,0.00,WeatherDisplay:10.37,2013-06-13 17:52:00,
2013-06-13 13:57:00,58.1,99.9,27.97,SE,135,0.0,0.0,0,0.00,CLR,SKC,0.00,WeatherDisplay:10.37,2013-06-13 17:57:00,
2013-06-13 14:02:00,58.1,99.9,27.97,SSE,157,0.5,2.3,0,0.00,CLR,SKC,0.00,WeatherDisplay:10.37,2013-06-13 18:02:00,
2013-06-13 14:07:00,58.1,99.9,27.97,SSE,157,0.6,3.5,0,0.00,CLR,SKC,0.00,WeatherDisplay:10.37,2013-06-13 18:07:00,
2013-06-13 14:12:00,58.1,99.9,27.98,SSE,157,1.4,5.0,0,0.00,CLR,SKC,0.00,WeatherDisplay:10.37,2013-06-13 18:12:00,
2013-06-13 14:17:00,58.1,99.9,27.98,SE,135,2.2,3.5,0,0.00,CLR,SKC,0.00,WeatherDisplay:10.37,2013-06-13 18:17:00,
2013-06-13 14:22:00,58.1,99.9,27.98,SE,135,3.2,5.8,0,0.00,CLR,SKC,0.00,WeatherDisplay:10.37,2013-06-13 18:22:00,
2013-06-13 14:27:00,57.1,99.9,27.98,SE,135,1.9,3.5,0,0.00,CLR,SKC,0.00,WeatherDisplay:10.37,2013-06-13 18:27:00,
2013-06-13 14:32:00,57.1,99.9,27.97,ESE,112,0.0,0.0,0,0.00,CLR,SKC,0.00,WeatherDisplay:10.37,2013-06-13 18:32:00,
2013-06-13 14:37:00,57.1,99.9,27.97,SE,135,0.0,0.0,0,0.01,RA,SKC,0.01,WeatherDisplay:10.37,2013-06-13 18:37:00,
2013-06-13 14:42:00,57.1,99.9,27.94,ESE,112,0.0,0.0,0,0.01,RA,SKC,0.01,WeatherDisplay:10.37,2013-06-13 18:42:00,
2013-06-13 14:47:00,57.1,99.9,27.94,ESE,112,0.0,0.0,0,0.01,,SKC,0.01,WeatherDisplay:10.37,2013-06-13 18:47:00,
2013-06-13 14:52:00,57.1,99.9,27.93,ESE,112,1.4,3.5,0,0.01,CLR,SKC,0.01,WeatherDisplay:10.37,2013-06-13 18:52:00,
2013-06-13 14:57:00,57.1,99.9,27.93,ESE,112,2.9,4.0,0,0.01,CLR,SKC,0.01,WeatherDisplay:10.37,2013-06-13 18:57:00,
2013-06-13 15:02:00,57.1,99.9,27.92,ESE,112,1.8,3.5,0,0.02,RA,SKC,0.02,WeatherDisplay:10.37,2013-06-13 19:02:00,
2013-06-13 15:07:00,57.1,99.9,27.92,SE,135,2.6,4.6,0,0.02,RA,SKC,0.02,WeatherDisplay:10.37,2013-06-13 19:07:00,
2013-06-13 15:12:00,57.1,99.9,27.94,SE,135,0.7,3.5,0,0.02,,SKC,0.02,WeatherDisplay:10.37,2013-06-13 19:12:00,
2013-06-13 15:17:00,57.1,99.9,27.94,ESE,112,0.3,2.3,0,0.02,CLR,SKC,0.02,WeatherDisplay:10.37,2013-06-13 19:17:00,
2013-06-13 15:22:00,57.1,99.9,27.94,SE,135,0.5,2.3,0,0.02,CLR,SKC,0.02,WeatherDisplay:10.37,2013-06-13 19:22:00,
2013-06-13 15:27:00,57.1,99.9,27.94,ESE,112,0.0,0.0,0,0.02,CLR,SKC,0.02,WeatherDisplay:10.37,2013-06-13 19:27:00,
2013-06-13 15:32:00,57.1,99.9,27.94,SSE,157,0.9,4.0,0,0.02,CLR,SKC,0.02,WeatherDisplay:10.37,2013-06-13 19:32:00,
2013-06-13 15:37:00,56.1,99.9,27.94,SE,135,0.0,0.0,0,0.01,CLR,SKC,0.02,WeatherDisplay:10.37,2013-06-13 19:37:00,
2013-06-13 15:42:00,56.1,99.9,27.95,SSE,157,0.0,0.0,0,0.01,CLR,SKC,0.02,WeatherDisplay:10.37,2013-06-13 19:42:00,
2013-06-13 15:47:00,56.1,99.9,27.95,SE,135,0.0,0.0,0,0.01,CLR,SKC,0.02,WeatherDisplay:10.37,2013-06-13 19:47:00,
2013-06-13 15:52:00,56.1,99.9,27.96,SSW,202,0.0,0.0,0,0.01,CLR,SKC,0.02,WeatherDisplay:10.37,2013-06-13 19:52:00,
2013-06-13 15:57:00,56.1,99.9,27.96,SSW,202,0.0,0.0,0,0.01,CLR,SKC,0.02,WeatherDisplay:10.37,2013-06-13 19:57:00,
2013-06-13 16:02:00,56.1,99.9,27.95,SSW,202,0.0,0.0,0,0.00,CLR,SKC,0.02,WeatherDisplay:10.37,2013-06-13 20:02:00,
2013-06-13 16:07:00,56.1,99.9,27.95,SSE,157,0.0,0.0,0,0.00,CLR,SKC,0.02,WeatherDisplay:10.37,2013-06-13 20:07:00,
2013-06-13 16:12:00,57.1,99.9,27.96,North,360,0.0,0.0,0,0.00,CLR,SKC,0.02,WeatherDisplay:10.37,2013-06-13 20:12:00,
2013-06-13 16:17:00,57.1,99.9,27.96,North,360,0.0,0.0,0,0.00,CLR,SKC,0.02,WeatherDisplay:10.37,2013-06-13 20:17:00,
2013-06-13 16:22:00,57.1,99.9,27.95,North,360,0.0,0.0,0,0.00,CLR,SKC,0.02,WeatherDisplay:10.37,2013-06-13 20:22:00,
2013-06-13 16:27:00,57.1,99.9,27.95,ENE,67,0.0,0.0,0,0.00,CLR,SKC,0.02,WeatherDisplay:10.37,2013-06-13 20:27:00,
2013-06-13 16:32:00,57.1,99.9,27.94,ENE,67,0.0,0.0,0,0.00,CLR,SKC,0.02,WeatherDisplay:10.37,2013-06-13 20:32:00,
2013-06-13 16:37:00,57.1,99.9,27.94,ENE,67,0.0,0.0,0,0.00,CLR,SKC,0.02,WeatherDisplay:10.37,2013-06-13 20:37:00,
2013-06-13 16:42:00,57.1,99.9,27.94,East,90,0.0,0.0,0,0.00,CLR,SKC,0.02,WeatherDisplay:10.37,2013-06-13 20:42:00,
2013-06-13 16:47:00,57.1,99.9,27.94,ESE,112,0.0,0.0,0,0.00,CLR,SKC,0.02,WeatherDisplay:10.37,2013-06-13 20:47:00,
2013-06-13 16:52:00,57.1,99.9,27.93,SE,135,0.0,0.0,0,0.00,CLR,SKC,0.02,WeatherDisplay:10.37,2013-06-13 20:52:00,
2013-06-13 16:57:00,57.1,99.9,27.93,NE,45,0.0,0.0,0,0.00,CLR,SKC,0.02,WeatherDisplay:10.37,2013-06-13 20:57:00,
2013-06-13 17:02:00,57.1,99.9,27.93,ESE,112,0.7,3.5,0,0.00,CLR,SKC,0.02,WeatherDisplay:10.37,2013-06-13 21:02:00,
2013-06-13 17:07:00,57.1,99.9,27.93,ESE,112,0.0,0.0,0,0.00,CLR,SKC,0.02,WeatherDisplay:10.37,2013-06-13 21:07:00,
2013-06-13 17:12:00,57.1,99.9,27.93,ESE,112,0.0,0.0,0,0.00,CLR,SKC,0.02,WeatherDisplay:10.37,2013-06-13 21:12:00,
2013-06-13 17:17:00,57.1,99.9,27.93,ESE,112,0.0,0.0,0,0.00,CLR,SKC,0.02,WeatherDisplay:10.37,2013-06-13 21:17:00,
2013-06-13 17:22:00,57.1,99.9,27.93,ESE,112,0.0,0.0,0,0.00,CLR,SKC,0.02,WeatherDisplay:10.37,2013-06-13 21:22:00,
2013-06-13 17:27:00,57.1,99.9,27.93,ESE,112,0.0,0.0,0,0.00,CLR,SKC,0.02,WeatherDisplay:10.37,2013-06-13 21:27:00,
2013-06-13 17:32:00,57.1,99.9,27.92,SE,135,0.0,0.0,0,0.00,CLR,SKC,0.02,WeatherDisplay:10.37,2013-06-13 21:32:00,
2013-06-13 17:37:00,57.1,99.9,27.92,ESE,112,0.2,2.3,0,0.00,CLR,SKC,0.02,WeatherDisplay:10.37,2013-06-13 21:37:00,
2013-06-13 17:42:00,57.1,99.9,27.90,ESE,112,0.0,0.0,0,0.00,CLR,SKC,0.02,WeatherDisplay:10.37,2013-06-13 21:42:00,
2013-06-13 17:47:00,57.1,99.9,27.90,ENE,67,0.0,0.0,0,0.00,CLR,SKC,0.02,WeatherDisplay:10.37,2013-06-13 21:47:00,
2013-06-13 17:52:00,57.1,99.9,27.89,ENE,67,0.6,3.5,0,0.00,CLR,SKC,0.02,WeatherDisplay:10.37,2013-06-13 21:52:00,
2013-06-13 17:57:00,57.1,99.9,27.89,ESE,112,0.0,0.0,0,0.00,CLR,SKC,0.02,WeatherDisplay:10.37,2013-06-13 21:57:00,
2013-06-13 18:02:00,57.1,99.9,27.90,East,90,0.0,0.0,0,0.00,CLR,SKC,0.02,WeatherDisplay:10.37,2013-06-13 22:02:00,
2013-06-13 18:07:00,57.1,99.9,27.90,East,90,0.0,0.0,0,0.00,CLR,SKC,0.02,WeatherDisplay:10.37,2013-06-13 22:07:00,
2013-06-13 18:12:00,56.1,99.9,27.90,East,90,0.1,1.2,0,0.00,CLR,SKC,0.02,WeatherDisplay:10.37,2013-06-13 22:12:00,
2013-06-13 18:17:00,57.1,99.9,27.90,ESE,112,0.0,0.0,0,0.00,CLR,SKC,0.02,WeatherDisplay:10.37,2013-06-13 22:17:00,
2013-06-13 18:22:00,57.1,99.9,27.90,East,90,0.0,0.0,0,0.00,CLR,SKC,0.02,WeatherDisplay:10.37,2013-06-13 22:22:00,
2013-06-13 18:27:00,56.1,99.9,27.90,ESE,112,0.0,0.0,0,0.00,CLR,SKC,0.02,WeatherDisplay:10.37,2013-06-13 22:27:00,
2013-06-13 18:32:00,56.1,99.9,27.89,ESE,112,0.9,2.3,0,0.00,CLR,SKC,0.02,WeatherDisplay:10.37,2013-06-13 22:32:00,
2013-06-13 18:37:00,56.1,99.9,27.89,East,90,0.0,0.0,0,0.00,CLR,SKC,0.02,WeatherDisplay:10.37,2013-06-13 22:37:00,
2013-06-13 18:42:00,56.1,99.9,27.90,ESE,112,0.0,0.0,0,0.00,CLR,SKC,0.02,WeatherDisplay:10.37,2013-06-13 22:42:00,
2013-06-13 18:47:00,56.1,99.9,27.90,ESE,112,0.0,0.0,0,0.00,CLR,SKC,0.02,WeatherDisplay:10.37,2013-06-13 22:47:00,
2013-06-13 18:52:00,56.1,99.9,27.90,East,90,0.0,0.0,0,0.00,CLR,SKC,0.02,WeatherDisplay:10.37,2013-06-13 22:52:00,
2013-06-13 18:57:00,56.1,99.9,27.90,ESE,112,0.4,2.3,0,0.00,CLR,SKC,0.02,WeatherDisplay:10.37,2013-06-13 22:57:00,
2013-06-13 19:02:00,56.1,99.9,27.89,East,90,0.0,0.0,0,0.00,CLR,SKC,0.02,WeatherDisplay:10.37,2013-06-13 23:02:00,
2013-06-13 19:07:00,56.1,99.9,27.89,East,90,0.0,0.0,0,0.00,CLR,SKC,0.02,WeatherDisplay:10.37,2013-06-13 23:07:00,
2013-06-13 19:12:00,56.1,99.9,27.88,ESE,112,0.5,2.0,0,0.00,CLR,SKC,0.02,WeatherDisplay:10.37,2013-06-13 23:12:00,
2013-06-13 19:17:00,56.1,99.9,27.88,ESE,112,0.0,0.0,0,0.00,CLR,SKC,0.02,WeatherDisplay:10.37,2013-06-13 23:17:00,
2013-06-13 19:22:00,56.1,99.9,27.89,East,90,0.6,2.3,0,0.00,CLR,SKC,0.02,WeatherDisplay:10.37,2013-06-13 23:22:00,
2013-06-13 19:27:00,56.1,99.9,27.89,ENE,67,0.0,0.0,0,0.00,CLR,SKC,0.02,WeatherDisplay:10.37,2013-06-13 23:27:00,
2013-06-13 19:32:00,56.1,99.9,27.89,East,90,0.0,0.0,0,0.00,CLR,SKC,0.02,WeatherDisplay:10.37,2013-06-13 23:32:00,
2013-06-13 19:37:00,56.1,99.9,27.89,East,90,0.0,0.0,0,0.00,CLR,SKC,0.02,WeatherDisplay:10.37,2013-06-13 23:37:00,
2013-06-13 19:42:00,56.1,99.9,27.89,East,90,0.0,1.2,0,0.00,CLR,SKC,0.02,WeatherDisplay:10.37,2013-06-13 23:42:00,
2013-06-13 19:47:00,56.1,99.9,27.89,East,90,0.0,0.0,0,0.00,CLR,SKC,0.02,WeatherDisplay:10.37,2013-06-13 23:47:00,
2013-06-13 19:52:00,56.1,99.9,27.89,East,90,0.0,0.0,0,0.00,CLR,SKC,0.02,WeatherDisplay:10.37,2013-06-13 23:52:00,
2013-06-13 19:57:00,56.1,99.9,27.89,East,90,0.0,3.5,0,0.00,CLR,SKC,0.02,WeatherDisplay:10.37,2013-06-13 23:57:00,
2013-06-13 20:02:00,56.1,99.9,27.89,East,90,0.0,0.0,0,0.00,CLR,SKC,0.02,WeatherDisplay:10.37,2013-06-14 00:02:00,
2013-06-13 20:07:00,56.1,99.9,27.89,East,90,0.0,0.0,0,0.00,CLR,SKC,0.02,WeatherDisplay:10.37,2013-06-14 00:07:00,
2013-06-13 20:12:00,56.1,99.9,27.89,ESE,112,0.2,2.3,0,0.00,CLR,SKC,0.02,WeatherDisplay:10.37,2013-06-14 00:12:00,
2013-06-13 20:17:00,56.1,99.9,27.89,ESE,112,0.0,1.0,0,0.00,CLR,SKC,0.02,WeatherDisplay:10.37,2013-06-14 00:17:00,
2013-06-13 20:22:00,56.1,99.9,27.88,NE,45,0.3,3.0,0,0.00,CLR,SKC,0.02,WeatherDisplay:10.37,2013-06-14 00:22:00,
2013-06-13 20:27:00,56.1,99.9,27.88,NE,45,0.0,0.0,0,0.00,CLR,SKC,0.02,WeatherDisplay:10.37,2013-06-14 00:27:00,
2013-06-13 20:32:00,56.1,99.9,27.88,ESE,112,0.2,1.2,0,0.00,CLR,SKC,0.02,WeatherDisplay:10.37,2013-06-14 00:32:00,
2013-06-13 20:37:00,55.1,99.9,27.88,ENE,67,0.4,2.3,0,0.00,CLR,SKC,0.02,WeatherDisplay:10.37,2013-06-14 00:37:00,
2013-06-13 20:42:00,56.1,99.9,27.87,East,90,0.5,2.0,0,0.00,CLR,SKC,0.02,WeatherDisplay:10.37,2013-06-14 00:42:00,
2013-06-13 20:47:00,56.1,99.9,27.87,East,90,0.6,3.5,0,0.00,CLR,SKC,0.02,WeatherDisplay:10.37,2013-06-14 00:47:00,
2013-06-13 20:52:00,56.1,99.9,27.87,East,90,0.4,2.3,0,0.00,CLR,SKC,0.02,WeatherDisplay:10.37,2013-06-14 00:52:00,
2013-06-13 20:57:00,56.1,99.9,27.87,ESE,112,0.4,2.3,0,0.00,CLR,SKC,0.02,WeatherDisplay:10.37,2013-06-14 00:57:00,
2013-06-13 21:02:00,56.1,99.9,27.88,NNE,22,1.0,3.5,0,0.00,CLR,SKC,0.02,WeatherDisplay:10.37,2013-06-14 01:02:00,
2013-06-13 21:07:00,56.1,99.9,27.88,ENE,67,0.4,2.3,0,0.00,CLR,SKC,0.02,WeatherDisplay:10.37,2013-06-14 01:07:00,
2013-06-13 21:12:00,56.1,99.9,27.88,ESE,112,1.1,3.5,0,0.00,CLR,SKC,0.02,WeatherDisplay:10.37,2013-06-14 01:12:00,
2013-06-13 21:17:00,56.1,99.9,27.88,East,90,0.0,0.0,0,0.00,CLR,SKC,0.02,WeatherDisplay:10.37,2013-06-14 01:17:00,
2013-06-13 21:22:00,55.1,99.9,27.90,ENE,67,0.0,0.0,0,0.00,CLR,SKC,0.02,WeatherDisplay:10.37,2013-06-14 01:22:00,
2013-06-13 21:27:00,55.1,99.9,27.90,ESE,112,0.6,3.5,0,0.00,CLR,SKC,0.02,WeatherDisplay:10.37,2013-06-14 01:27:00,
2013-06-13 21:32:00,56.1,99.9,27.89,ENE,67,0.7,3.5,0,0.00,CLR,SKC,0.02,WeatherDisplay:10.37,2013-06-14 01:32:00,
2013-06-13 21:37:00,55.1,99.9,27.89,ESE,112,0.1,2.0,0,0.00,CLR,SKC,0.02,WeatherDisplay:10.37,2013-06-14 01:37:00,
2013-06-13 21:42:00,55.1,99.9,27.89,ESE,112,0.0,0.0,0,0.00,CLR,SKC,0.02,WeatherDisplay:10.37,2013-06-14 01:42:00,
2013-06-13 21:47:00,55.1,99.9,27.89,NNE,22,0.3,3.5,0,0.00,CLR,SKC,0.02,WeatherDisplay:10.37,2013-06-14 01:47:00,
2013-06-13 21:52:00,55.1,99.9,27.90,ESE,112,0.0,0.0,0,0.00,CLR,SKC,0.02,WeatherDisplay:10.37,2013-06-14 01:52:00,
2013-06-13 21:57:00,55.1,99.9,27.90,East,90,0.0,0.0,0,0.00,CLR,SKC,0.02,WeatherDisplay:10.37,2013-06-14 01:57:00,
2013-06-13 22:02:00,55.1,99.9,27.90,NNE,22,0.1,0.0,0,0.01,RA,SKC,0.03,WeatherDisplay:10.37,2013-06-14 02:02:00,
2013-06-13 22:07:00,55.1,99.9,27.90,NNE,22,0.0,0.0,0,0.01,RA,SKC,0.03,WeatherDisplay:10.37,2013-06-14 02:07:00,
2013-06-13 22:12:00,55.1,99.9,27.90,East,90,0.0,0.0,0,0.02,RA,SKC,0.04,WeatherDisplay:10.37,2013-06-14 02:12:00,
2013-06-13 22:17:00,55.1,99.9,27.90,ENE,67,0.0,1.2,0,0.02,RA,SKC,0.04,WeatherDisplay:10.37,2013-06-14 02:17:00,
2013-06-13 22:22:00,55.1,99.9,27.89,ENE,67,0.0,2.3,0,0.03,RA,SKC,0.06,WeatherDisplay:10.37,2013-06-14 02:22:00,
2013-06-13 22:27:00,55.1,99.9,27.89,ENE,67,0.4,3.5,0,0.05,RA,SKC,0.07,WeatherDisplay:10.37,2013-06-14 02:27:00,
2013-06-13 22:32:00,55.1,99.9,27.88,ESE,112,1.1,3.0,0,0.06,RA,SKC,0.08,WeatherDisplay:10.37,2013-06-14 02:32:00,
2013-06-13 22:37:00,55.1,99.9,27.88,ENE,67,1.2,3.5,0,0.06,RA,SKC,0.08,WeatherDisplay:10.37,2013-06-14 02:37:00,
2013-06-13 22:42:00,55.1,99.9,27.86,SW,225,1.2,6.9,0,0.06,,SKC,0.08,WeatherDisplay:10.37,2013-06-14 02:42:00,
2013-06-13 22:47:00,55.1,99.9,27.86,ENE,67,1.2,3.5,0,0.06,CLR,SKC,0.08,WeatherDisplay:10.37,2013-06-14 02:47:00,
2013-06-13 22:52:00,55.1,99.9,27.85,NNW,337,2.6,5.8,0,0.06,CLR,SKC,0.08,WeatherDisplay:10.37,2013-06-14 02:52:00,
2013-06-13 22:57:00,55.1,99.9,27.85,ESE,112,2.1,3.5,0,0.06,CLR,SKC,0.08,WeatherDisplay:10.37,2013-06-14 02:57:00,
2013-06-13 23:02:00,54.1,99.9,27.84,ESE,112,1.0,4.6,0,0.05,CLR,SKC,0.08,WeatherDisplay:10.37,2013-06-14 03:02:00,
2013-06-13 23:07:00,54.1,99.9,27.84,ENE,67,1.9,4.6,0,0.05,CLR,SKC,0.08,WeatherDisplay:10.37,2013-06-14 03:07:00,
2013-06-13 23:12:00,54.1,99.9,27.84,ESE,112,1.4,4.0,0,0.04,CLR,SKC,0.08,WeatherDisplay:10.37,2013-06-14 03:12:00,
2013-06-13 23:17:00,54.1,99.9,27.84,ESE,112,1.0,3.5,0,0.04,CLR,SKC,0.08,WeatherDisplay:10.37,2013-06-14 03:17:00,
2013-06-13 23:22:00,55.1,99.9,27.84,NE,45,1.4,3.5,0,0.03,CLR,SKC,0.08,WeatherDisplay:10.37,2013-06-14 03:22:00,
2013-06-13 23:27:00,55.1,99.9,27.84,ENE,67,1.1,3.5,0,0.01,CLR,SKC,0.08,WeatherDisplay:10.37,2013-06-14 03:27:00,
2013-06-13 23:32:00,55.1,99.9,27.82,NNE,22,0.6,4.0,0,0.00,CLR,SKC,0.08,WeatherDisplay:10.37,2013-06-14 03:32:00,
2013-06-13 23:37:00,54.1,99.9,27.82,NE,45,1.5,4.6,0,0.01,RA,SKC,0.09,WeatherDisplay:10.37,2013-06-14 03:37:00,
2013-06-13 23:42:00,54.1,99.9,27.82,NNE,22,2.3,10.4,0,0.01,RA,SKC,0.09,WeatherDisplay:10.37,2013-06-14 03:42:00,
2013-06-13 23:47:00,54.1,99.9,27.82,North,360,0.9,3.5,0,0.01,CLR,SKC,0.09,WeatherDisplay:10.37,2013-06-14 03:47:00,
2013-06-13 23:52:00,54.1,99.9,27.82,East,90,2.3,4.6,0,0.02,RA,SKC,0.10,WeatherDisplay:10.37,2013-06-14 03:52:00,
2013-06-13 23:57:00,55.1,99.9,27.82,North,360,1.4,3.5,0,0.02,RA,SKC,0.10,WeatherDisplay:10.37,2013-06-14 03:57:00,